Regional Weather Roundup
Issued by NWS Spokane, WA

Home | Current Version | Previous Version | Text Only | Print | Product List | Glossary On
Versions: 1 2 3 4 5 6 7 8 9 10 11 12 13 14 15 16 17 18 19 20 21 22 23 24 25 26 27 28 29 30 31 32 33 34 35 36 37 38 39 40 41 42 43 44 45 46 47 48 49 50
000
NZUS01 KOTX 231600
RWROTX
EASTERN WASHINGTON/NORTHERN IDAHO ROUNDUP
NATIONAL WEATHER SERVICE, SPOKANE WA
900 AM PDT SAT JUL 23 2016

Note: "fair" indicated few or no clouds below 12,000 feet with no
significant weather and/or obstructions to visibility.

...NORTHEAST WASHINGTON AND NORTHERN IDAHO PANHANDLE...

CITY           SKY/WX    TMP DP  RH WIND       PRES   REMARKS
SPOKANE INTL   MOSUNNY   61  46  57 S10       30.19R
SPOKANE DOWNTO MOSUNNY   62  48  60 S10       30.20R
COEUR D ALENE  SUNNY     63  48  59 S12       30.18R
DEER PARK      SUNNY     58  50  75 S7        30.19S
SANDPOINT        N/A     55  54  94 W8        30.19R

...SOUTHEAST WASHINGTON AND SOUTHERN IDAHO PANHANDLE...

CITY           SKY/WX    TMP DP  RH WIND       PRES   REMARKS
WALLA WALLA    SUNNY     65  47  52 SW10      30.20S
PULLMAN/MOSCOW SUNNY     63  47  55 W9        30.23R
LOWELL           N/A     64  53  67 CALM      30.19F

...COLUMBIA BASIN...

CITY           SKY/WX    TMP DP  RH WIND       PRES   REMARKS
EPHRATA        SUNNY     71  43  36 N7        30.15R
MOSES LAKE     SUNNY     69  48  47 S6        30.17R
TRI CITIES     SUNNY     70  50  49 S6        30.18S
HERMISTON      MOSUNNY   68  49  50 SW9       30.19S
PENDLETON      SUNNY     65  45  48 CALM      30.21S

...EAST SLOPES CASCADES...

CITY           SKY/WX    TMP DP  RH WIND       PRES   REMARKS
THE DALLES     SUNNY     70  48  45 NW16G23   30.19F
YAKIMA         SUNNY     70  46  42 VRB5      30.19S
ELLENSBURG     SUNNY     67  48  50 NW17      30.19R
WENATCHEE      SUNNY     68  45  43 W8        30.16S
OMAK           SUNNY     66  45  46 VRB3      30.15S

...SOUTHERN BRITISH COLUMBIA...

CITY           SKY/WX    TMP DP  RH WIND       PRES   REMARKS

...WESTERN MONTANA...

CITY           SKY/WX    TMP DP  RH WIND       PRES   REMARKS
MISSOULA       MOSUNNY   66  46  48 CALM      30.19F

...NEIGHBORING CITIES...

CITY           SKY/WX    TMP DP  RH WIND       PRES   REMARKS
SEATTLE        CLOUDY    62  55  77 NW3       30.29R



USA.gov is the U.S. government's official web portal to all federal, state and local government web resources and services.